Time,TemperatureF,DewpointF,PressureIn,WindDirection,WindDirectionDegrees,WindSpeedMPH,WindSpeedGustMPH,Humidity,HourlyPrecipIn,Conditions,Clouds,dailyrainin,SoftwareType,DateUTC
2013-08-20 00:01:00,74.1,49.5,29.74,SW,225,0.0,13.0,42,0.00,,,0.00,WUHU21623XXSP,2013-08-20 07:01:00,
2013-08-20 00:06:00,73.7,49.8,29.75,South,180,4.9,7.4,43,0.00,,,0.00,WUHU21623XXSP,2013-08-20 07:06:00,
2013-08-20 00:11:00,73.6,49.7,29.74,SSW,202,4.9,8.1,43,0.00,,,0.00,WUHU21623XXSP,2013-08-20 07:11:00,
2013-08-20 00:16:00,73.7,49.8,29.74,SSW,202,2.9,8.1,43,0.00,,,0.00,WUHU21623XXSP,2013-08-20 07:16:00,
2013-08-20 00:21:00,73.9,50.6,29.74,SW,225,2.0,8.3,44,0.00,,,0.00,WUHU21623XXSP,2013-08-20 07:21:00,
2013-08-20 00:26:00,73.7,50.4,29.74,SSW,202,0.0,8.3,44,0.00,,,0.00,WUHU21623XXSP,2013-08-20 07:26:00,
2013-08-20 00:31:00,73.4,50.1,29.74,SSW,202,0.0,2.9,44,0.00,,,0.00,WUHU21623XXSP,2013-08-20 07:31:00,
2013-08-20 00:36:00,73.4,50.1,29.73,SW,225,4.9,7.2,44,0.00,,,0.00,WUHU21623XXSP,2013-08-20 07:36:00,
2013-08-20 00:41:00,73.2,49.9,29.73,SW,225,2.5,7.2,44,0.00,,,0.00,WUHU21623XXSP,2013-08-20 07:41:00,
2013-08-20 00:46:00,73.0,50.4,29.73,SW,225,4.9,6.0,45,0.00,,,0.00,WUHU21623XXSP,2013-08-20 07:46:00,
2013-08-20 00:51:00,72.8,49.6,29.73,WSW,247,5.1,8.5,44,0.00,,,0.00,WUHU21623XXSP,2013-08-20 07:51:00,
2013-08-20 00:56:00,73.0,49.8,29.73,WSW,247,8.7,10.3,44,0.00,,,0.00,WUHU21623XXSP,2013-08-20 07:56:00,
2013-08-20 01:01:00,73.4,50.1,29.73,SW,225,7.8,12.3,44,0.00,,,0.00,WUHU21623XXSP,2013-08-20 08:01:00,
2013-08-20 01:06:00,73.4,50.7,29.74,SW,225,6.0,12.3,45,0.00,,,0.00,WUHU21623XXSP,2013-08-20 08:06:00,
2013-08-20 01:11:00,73.0,50.4,29.74,SW,225,9.2,9.6,45,0.00,,,0.00,WUHU21623XXSP,2013-08-20 08:11:00,
2013-08-20 01:16:00,72.5,51.1,29.73,WSW,247,9.4,10.5,47,0.00,,,0.00,WUHU21623XXSP,2013-08-20 08:16:00,
2013-08-20 01:21:00,72.1,51.4,29.72,SW,225,8.1,10.5,48,0.00,,,0.00,WUHU21623XXSP,2013-08-20 08:21:00,
2013-08-20 01:26:00,71.9,51.2,29.73,SSW,202,6.9,10.5,48,0.00,,,0.00,WUHU21623XXSP,2013-08-20 08:26:00,
2013-08-20 01:31:00,71.6,51.5,29.73,SSW,202,6.7,10.5,49,0.00,,,0.00,WUHU21623XXSP,2013-08-20 08:31:00,
2013-08-20 01:36:00,71.2,51.7,29.73,South,180,8.1,9.6,50,0.00,,,0.00,WUHU21623XXSP,2013-08-20 08:36:00,
2013-08-20 01:41:00,71.0,51.5,29.73,SSW,202,8.5,11.0,50,0.00,,,0.00,WUHU21623XXSP,2013-08-20 08:41:00,
2013-08-20 01:46:00,71.2,51.7,29.73,WSW,247,9.6,11.0,50,0.00,,,0.00,WUHU21623XXSP,2013-08-20 08:46:00,
2013-08-20 01:51:00,71.2,51.1,29.72,WSW,247,7.2,11.2,49,0.00,,,0.00,WUHU21623XXSP,2013-08-20 08:51:00,
2013-08-20 01:56:00,71.2,51.1,29.72,WSW,247,8.5,11.2,49,0.00,,,0.00,WUHU21623XXSP,2013-08-20 08:56:00,
2013-08-20 02:01:00,71.0,50.9,29.72,WSW,247,0.9,9.8,49,0.00,,,0.00,WUHU21623XXSP,2013-08-20 09:01:00,
2013-08-20 02:06:00,70.7,50.6,29.72,WSW,247,5.1,8.1,49,0.00,,,0.00,WUHU21623XXSP,2013-08-20 09:06:00,
2013-08-20 02:11:00,70.5,50.5,29.71,West,270,0.0,7.6,49,0.00,,,0.00,WUHU21623XXSP,2013-08-20 09:11:00,
2013-08-20 02:16:00,70.3,50.3,29.72,WSW,247,0.0,6.3,49,0.00,,,0.00,WUHU21623XXSP,2013-08-20 09:16:00,
2013-08-20 02:21:00,70.0,50.0,29.71,WSW,247,1.6,5.8,49,0.00,,,0.00,WUHU21623XXSP,2013-08-20 09:21:00,
2013-08-20 02:26:00,69.8,49.8,29.71,WSW,247,6.5,6.5,49,0.00,,,0.00,WUHU21623XXSP,2013-08-20 09:26:00,
2013-08-20 02:31:00,70.0,50.0,29.72,South,180,6.9,7.4,49,0.00,,,0.00,WUHU21623XXSP,2013-08-20 09:31:00,
2013-08-20 02:36:00,70.1,50.1,29.72,SSW,202,6.9,7.6,49,0.00,,,0.00,WUHU21623XXSP,2013-08-20 09:36:00,
2013-08-20 02:41:00,70.0,50.6,29.72,SW,225,6.9,7.8,50,0.00,,,0.00,WUHU21623XXSP,2013-08-20 09:41:00,
2013-08-20 02:46:00,69.8,50.9,29.71,SW,225,3.1,7.8,51,0.00,,,0.00,WUHU21623XXSP,2013-08-20 09:46:00,
2013-08-20 02:51:00,69.4,50.6,29.72,SW,225,0.0,7.6,51,0.00,,,0.00,WUHU21623XXSP,2013-08-20 09:51:00,
2013-08-20 02:56:00,69.4,50.0,29.71,WSW,247,5.8,5.8,50,0.00,,,0.00,WUHU21623XXSP,2013-08-20 09:56:00,
2013-08-20 03:01:00,69.4,50.0,29.71,WSW,247,1.3,6.5,50,0.00,,,0.00,WUHU21623XXSP,2013-08-20 10:01:00,
2013-08-20 03:06:00,69.2,49.8,29.71,West,270,0.4,6.5,50,0.00,,,0.00,WUHU21623XXSP,2013-08-20 10:06:00,
2013-08-20 03:11:00,69.1,49.7,29.71,West,270,0.0,1.8,50,0.00,,,0.00,WUHU21623XXSP,2013-08-20 10:11:00,
2013-08-20 03:16:00,68.9,49.5,29.71,West,270,0.0,0.4,50,0.00,,,0.00,WUHU21623XXSP,2013-08-20 10:16:00,
2013-08-20 03:21:00,68.9,49.0,29.71,West,270,0.0,0.0,49,0.00,,,0.00,WUHU21623XXSP,2013-08-20 10:21:00,
2013-08-20 03:26:00,69.1,49.2,29.71,WSW,247,0.0,3.6,49,0.00,,,0.00,WUHU21623XXSP,2013-08-20 10:26:00,
2013-08-20 03:31:00,68.7,48.8,29.71,WSW,247,6.5,6.7,49,0.00,,,0.00,WUHU21623XXSP,2013-08-20 10:31:00,
2013-08-20 03:36:00,68.3,49.0,29.71,WSW,247,12.8,12.8,50,0.00,,,0.00,WUHU21623XXSP,2013-08-20 10:36:00,
2013-08-20 03:41:00,68.2,48.9,29.71,WSW,247,11.6,12.8,50,0.00,,,0.00,WUHU21623XXSP,2013-08-20 10:41:00,
2013-08-20 03:46:00,67.8,49.1,29.72,WSW,247,7.8,11.9,51,0.00,,,0.00,WUHU21623XXSP,2013-08-20 10:46:00,
2013-08-20 03:51:00,67.6,48.9,29.72,SW,225,0.0,11.0,51,0.00,,,0.00,WUHU21623XXSP,2013-08-20 10:51:00,
2013-08-20 03:56:00,67.3,49.1,29.72,SSW,202,4.0,8.7,52,0.00,,,0.00,WUHU21623XXSP,2013-08-20 10:56:00,
2013-08-20 04:01:00,66.7,48.6,29.72,SSW,202,6.9,8.1,52,0.00,,,0.00,WUHU21623XXSP,2013-08-20 11:01:00,
2013-08-20 04:06:00,66.7,48.6,29.72,SSW,202,4.9,8.1,52,0.00,,,0.00,WUHU21623XXSP,2013-08-20 11:06:00,
2013-08-20 04:11:00,66.9,48.8,29.71,WSW,247,10.3,11.9,52,0.00,,,0.00,WUHU21623XXSP,2013-08-20 11:11:00,
2013-08-20 04:16:00,67.1,49.0,29.71,SW,225,10.7,12.5,52,0.00,,,0.00,WUHU21623XXSP,2013-08-20 11:16:00,
2013-08-20 04:21:00,66.5,48.9,29.71,SW,225,8.7,13.0,53,0.00,,,0.00,WUHU21623XXSP,2013-08-20 11:21:00,
2013-08-20 04:26:00,66.4,48.8,29.71,SW,225,8.9,13.4,53,0.00,,,0.00,WUHU21623XXSP,2013-08-20 11:26:00,
2013-08-20 04:31:00,66.4,48.8,29.72,West,270,7.6,13.4,53,0.00,,,0.00,WUHU21623XXSP,2013-08-20 11:31:00,
2013-08-20 04:36:00,66.4,48.8,29.71,West,270,4.9,12.8,53,0.00,,,0.00,WUHU21623XXSP,2013-08-20 11:36:00,
2013-08-20 04:41:00,66.4,48.8,29.72,WSW,247,3.4,10.1,53,0.00,,,0.00,WUHU21623XXSP,2013-08-20 11:41:00,
2013-08-20 04:46:00,66.4,48.3,29.71,West,270,3.4,8.3,52,0.00,,,0.00,WUHU21623XXSP,2013-08-20 11:46:00,
2013-08-20 04:51:00,66.2,48.1,29.72,West,270,6.7,8.3,52,0.00,,,0.00,WUHU21623XXSP,2013-08-20 11:51:00,
2013-08-20 04:56:00,66.4,48.3,29.72,WNW,292,8.1,8.3,52,0.00,,,0.00,WUHU21623XXSP,2013-08-20 11:56:00,
2013-08-20 05:01:00,66.5,48.4,29.72,WNW,292,3.1,8.3,52,0.00,,,0.00,WUHU21623XXSP,2013-08-20 12:01:00,
2013-08-20 05:06:00,66.7,48.6,29.72,West,270,7.2,8.7,52,0.00,,,0.00,WUHU21623XXSP,2013-08-20 12:06:00,
2013-08-20 05:11:00,66.4,48.3,29.72,West,270,1.1,8.7,52,0.00,,,0.00,WUHU21623XXSP,2013-08-20 12:11:00,
2013-08-20 05:16:00,66.2,48.1,29.72,West,270,1.8,7.6,52,0.00,,,0.00,WUHU21623XXSP,2013-08-20 12:16:00,
2013-08-20 05:21:00,65.8,48.3,29.72,WSW,247,0.0,7.6,53,0.00,,,0.00,WUHU21623XXSP,2013-08-20 12:21:00,
2013-08-20 05:26:00,65.5,48.0,29.72,WSW,247,2.2,2.2,53,0.00,,,0.00,WUHU21623XXSP,2013-08-20 12:26:00,
2013-08-20 05:31:00,65.1,47.6,29.72,WSW,247,0.0,2.2,53,0.00,,,0.00,WUHU21623XXSP,2013-08-20 12:31:00,
2013-08-20 05:36:00,64.9,47.4,29.72,WSW,247,0.0,2.2,53,0.00,,,0.00,WUHU21623XXSP,2013-08-20 12:36:00,
2013-08-20 05:41:00,64.6,47.2,29.72,WSW,247,0.0,1.8,53,0.00,,,0.00,WUHU21623XXSP,2013-08-20 12:41:00,
2013-08-20 05:46:00,64.6,47.2,29.72,WSW,247,0.0,1.6,53,0.00,,,0.00,WUHU21623XXSP,2013-08-20 12:46:00,
2013-08-20 05:51:00,64.7,47.2,29.72,WSW,247,0.0,0.0,53,0.00,,,0.00,WUHU21623XXSP,2013-08-20 12:51:00,
2013-08-20 05:56:00,64.7,47.2,29.73,WSW,247,0.0,0.0,53,0.00,,,0.00,WUHU21623XXSP,2013-08-20 12:56:00,
2013-08-20 06:01:00,64.4,47.0,29.73,WSW,247,0.0,3.6,53,0.00,,,0.00,WUHU21623XXSP,2013-08-20 13:01:00,
2013-08-20 06:06:00,64.0,47.1,29.73,SW,225,0.0,3.6,54,0.00,,,0.00,WUHU21623XXSP,2013-08-20 13:06:00,
2013-08-20 06:11:00,63.7,47.3,29.73,SW,225,1.1,6.7,55,0.00,,,0.00,WUHU21623XXSP,2013-08-20 13:11:00,
2013-08-20 06:16:00,63.1,47.3,29.73,SW,225,0.0,6.7,56,0.00,,,0.00,WUHU21623XXSP,2013-08-20 13:16:00,
2013-08-20 06:21:00,63.1,47.3,29.72,SW,225,2.2,4.0,56,0.00,,,0.00,WUHU21623XXSP,2013-08-20 13:21:00,
2013-08-20 06:26:00,63.1,47.7,29.73,SW,225,0.9,4.0,57,0.00,,,0.00,WUHU21623XXSP,2013-08-20 13:26:00,
2013-08-20 06:31:00,63.1,47.7,29.73,SW,225,0.0,2.9,57,0.00,,,0.00,WUHU21623XXSP,2013-08-20 13:31:00,
2013-08-20 06:36:00,63.1,47.7,29.73,SW,225,0.0,1.8,57,0.00,,,0.00,WUHU21623XXSP,2013-08-20 13:36:00,
2013-08-20 06:41:00,63.7,47.8,29.73,SW,225,0.0,0.0,56,0.00,,,0.00,WUHU21623XXSP,2013-08-20 13:41:00,
2013-08-20 06:46:00,63.8,47.9,29.74,SW,225,0.0,0.0,56,0.00,,,0.00,WUHU21623XXSP,2013-08-20 13:46:00,
2013-08-20 06:51:00,63.5,48.1,29.74,SSW,202,1.6,3.6,57,0.00,,,0.00,WUHU21623XXSP,2013-08-20 13:51:00,
2013-08-20 06:56:00,63.1,48.2,29.74,SSW,202,6.3,8.1,58,0.00,,,0.00,WUHU21623XXSP,2013-08-20 13:56:00,
2013-08-20 07:01:00,62.8,48.4,29.74,SSW,202,3.6,8.7,59,0.00,,,0.00,WUHU21623XXSP,2013-08-20 14:01:00,
2013-08-20 07:06:00,62.6,48.2,29.74,SW,225,4.7,8.7,59,0.00,,,0.00,WUHU21623XXSP,2013-08-20 14:06:00,
2013-08-20 07:11:00,62.4,48.5,29.74,SSW,202,0.0,7.8,60,0.00,,,0.00,WUHU21623XXSP,2013-08-20 14:11:00,
2013-08-20 07:16:00,62.2,48.7,29.74,SSW,202,2.5,7.8,61,0.00,,,0.00,WUHU21623XXSP,2013-08-20 14:16:00,
2013-08-20 07:21:00,62.2,48.7,29.74,SW,225,1.8,7.6,61,0.00,,,0.00,WUHU21623XXSP,2013-08-20 14:21:00,
2013-08-20 07:26:00,62.2,49.2,29.74,SW,225,5.8,7.6,62,0.00,,,0.00,WUHU21623XXSP,2013-08-20 14:26:00,
2013-08-20 07:31:00,62.6,49.5,29.74,SW,225,0.0,8.1,62,0.00,,,0.00,WUHU21623XXSP,2013-08-20 14:31:00,
2013-08-20 07:36:00,62.9,49.4,29.74,SW,225,0.0,8.1,61,0.00,,,0.00,WUHU21623XXSP,2013-08-20 14:36:00,
2013-08-20 07:41:00,63.3,49.8,29.74,WSW,247,6.7,8.7,61,0.00,,,0.00,WUHU21623XXSP,2013-08-20 14:41:00,
2013-08-20 07:46:00,63.3,49.8,29.74,WSW,247,6.3,8.7,61,0.00,,,0.00,WUHU21623XXSP,2013-08-20 14:46:00,
2013-08-20 07:51:00,63.3,49.8,29.74,West,270,7.2,8.9,61,0.00,,,0.00,WUHU21623XXSP,2013-08-20 14:51:00,
2013-08-20 07:56:00,63.3,50.2,29.74,WSW,247,5.1,9.8,62,0.00,,,0.00,WUHU21623XXSP,2013-08-20 14:56:00,
2013-08-20 08:01:00,63.5,50.4,29.74,West,270,0.0,9.8,62,0.00,,,0.00,WUHU21623XXSP,2013-08-20 15:01:00,
2013-08-20 08:06:00,63.8,50.7,29.74,SW,225,6.0,8.7,62,0.00,,,0.00,WUHU21623XXSP,2013-08-20 15:06:00,
2013-08-20 08:11:00,63.7,52.3,29.74,WSW,247,8.9,8.9,66,0.00,,,0.00,WUHU21623XXSP,2013-08-20 15:11:00,
2013-08-20 08:16:00,63.3,52.7,29.74,SSW,202,6.7,11.4,68,0.00,,,0.00,WUHU21623XXSP,2013-08-20 15:16:00,
2013-08-20 08:21:00,63.5,53.3,29.74,SW,225,6.7,11.4,69,0.00,,,0.00,WUHU21623XXSP,2013-08-20 15:21:00,
2013-08-20 08:26:00,63.5,52.9,29.74,SW,225,6.3,8.7,68,0.00,,,0.00,WUHU21623XXSP,2013-08-20 15:26:00,
2013-08-20 08:31:00,64.0,53.4,29.75,WSW,247,8.1,8.7,68,0.00,,,0.00,WUHU21623XXSP,2013-08-20 15:31:00,
2013-08-20 08:36:00,64.2,53.2,29.75,SW,225,0.0,8.7,67,0.00,,,0.00,WUHU21623XXSP,2013-08-20 15:36:00,
2013-08-20 08:41:00,64.0,53.0,29.76,SW,225,0.0,10.3,67,0.00,,,0.00,WUHU21623XXSP,2013-08-20 15:41:00,
2013-08-20 08:46:00,64.2,53.6,29.76,SW,225,5.4,10.3,68,0.00,,,0.00,WUHU21623XXSP,2013-08-20 15:46:00,
2013-08-20 08:51:00,64.7,54.1,29.76,West,270,9.8,9.8,68,0.00,,,0.00,WUHU21623XXSP,2013-08-20 15:51:00,
2013-08-20 08:56:00,65.3,54.2,29.76,SSW,202,8.5,10.3,67,0.00,,,0.00,WUHU21623XXSP,2013-08-20 15:56:00,
2013-08-20 09:01:00,65.6,54.1,29.76,SW,225,0.0,10.3,66,0.00,,,0.00,WUHU21623XXSP,2013-08-20 16:01:00,
2013-08-20 09:06:00,66.0,54.5,29.76,SW,225,6.3,10.1,66,0.00,,,0.00,WUHU21623XXSP,2013-08-20 16:06:00,
2013-08-20 09:11:00,66.2,54.7,29.76,WSW,247,9.8,9.8,66,0.00,,,0.00,WUHU21623XXSP,2013-08-20 16:11:00,
2013-08-20 09:16:00,66.7,54.7,29.76,West,270,4.0,9.8,65,0.00,,,0.00,WUHU21623XXSP,2013-08-20 16:16:00,
2013-08-20 09:21:00,67.1,54.7,29.76,SW,225,7.8,10.3,64,0.00,,,0.00,WUHU21623XXSP,2013-08-20 16:21:00,
2013-08-20 09:26:00,67.4,55.0,29.75,SW,225,4.3,10.3,64,0.00,,,0.00,WUHU21623XXSP,2013-08-20 16:26:00,
2013-08-20 09:31:00,68.0,55.1,29.76,West,270,2.5,8.3,63,0.00,,,0.00,WUHU21623XXSP,2013-08-20 16:31:00,
2013-08-20 09:36:00,68.5,55.1,29.76,WSW,247,7.4,8.7,62,0.00,,,0.00,WUHU21623XXSP,2013-08-20 16:36:00,
2013-08-20 09:41:00,68.9,55.1,29.76,West,270,2.2,9.8,61,0.00,,,0.00,WUHU21623XXSP,2013-08-20 16:41:00,
2013-08-20 09:46:00,69.2,55.4,29.75,SW,225,5.4,10.3,61,0.00,,,0.00,WUHU21623XXSP,2013-08-20 16:46:00,
2013-08-20 09:51:00,69.4,55.1,29.76,SW,225,5.4,10.3,60,0.00,,,0.00,WUHU21623XXSP,2013-08-20 16:51:00,
2013-08-20 09:56:00,70.1,55.3,29.76,SW,225,4.0,11.0,59,0.00,,,0.00,WUHU21623XXSP,2013-08-20 16:56:00,
2013-08-20 10:01:00,70.5,55.2,29.76,SW,225,9.8,11.0,58,0.00,,,0.00,WUHU21623XXSP,2013-08-20 17:01:00,
2013-08-20 10:06:00,70.9,55.6,29.76,West,270,8.1,11.0,58,0.00,,,0.00,WUHU21623XXSP,2013-08-20 17:06:00,
2013-08-20 10:11:00,71.4,55.5,29.76,SW,225,5.8,11.0,57,0.00,,,0.00,WUHU21623XXSP,2013-08-20 17:11:00,
2013-08-20 10:16:00,71.8,55.4,29.76,SW,225,8.5,11.9,56,0.00,,,0.00,WUHU21623XXSP,2013-08-20 17:16:00,
2013-08-20 10:21:00,72.1,55.2,29.76,West,270,6.0,11.9,55,0.00,,,0.00,WUHU21623XXSP,2013-08-20 17:21:00,
2013-08-20 10:26:00,72.8,55.3,29.76,WSW,247,8.5,10.5,54,0.00,,,0.00,WUHU21623XXSP,2013-08-20 17:26:00,
2013-08-20 10:31:00,73.4,55.9,29.76,WSW,247,6.9,10.5,54,0.00,,,0.00,WUHU21623XXSP,2013-08-20 17:31:00,
2013-08-20 10:36:00,73.9,55.8,29.76,SW,225,6.9,13.4,53,0.00,,,0.00,WUHU21623XXSP,2013-08-20 17:36:00,
2013-08-20 10:41:00,74.1,56.0,29.77,WSW,247,6.5,13.4,53,0.00,,,0.00,WUHU21623XXSP,2013-08-20 17:41:00,
2013-08-20 10:46:00,74.6,55.9,29.76,SSW,202,6.9,13.4,52,0.00,,,0.00,WUHU21623XXSP,2013-08-20 17:46:00,
2013-08-20 10:51:00,75.4,56.1,29.77,SW,225,8.5,11.4,51,0.00,,,0.00,WUHU21623XXSP,2013-08-20 17:51:00,
2013-08-20 10:56:00,75.4,56.1,29.76,WSW,247,9.4,11.4,51,0.00,,,0.00,WUHU21623XXSP,2013-08-20 17:56:00,
2013-08-20 11:01:00,75.5,56.2,29.76,SSW,202,6.9,11.2,51,0.00,,,0.00,WUHU21623XXSP,2013-08-20 18:01:00,
2013-08-20 11:06:00,75.9,56.0,29.76,WSW,247,4.5,11.6,50,0.00,,,0.00,WUHU21623XXSP,2013-08-20 18:06:00,
2013-08-20 11:11:00,76.6,56.7,29.76,SSW,202,0.0,12.1,50,0.00,,,0.00,WUHU21623XXSP,2013-08-20 18:11:00,
2013-08-20 11:16:00,77.0,56.5,29.76,SW,225,7.6,12.1,49,0.00,,,0.00,WUHU21623XXSP,2013-08-20 18:16:00,
2013-08-20 11:21:00,77.3,56.1,29.76,SW,225,5.1,11.4,48,0.00,,,0.00,WUHU21623XXSP,2013-08-20 18:21:00,
2013-08-20 11:26:00,78.4,56.6,29.76,West,270,7.4,11.4,47,0.00,,,0.00,WUHU21623XXSP,2013-08-20 18:26:00,
2013-08-20 11:31:00,79.1,56.6,29.76,SW,225,8.3,10.5,46,0.00,,,0.00,WUHU21623XXSP,2013-08-20 18:31:00,
2013-08-20 11:36:00,79.3,56.8,29.76,WSW,247,9.6,11.9,46,0.00,,,0.00,WUHU21623XXSP,2013-08-20 18:36:00,
2013-08-20 11:41:00,80.0,56.8,29.76,WSW,247,5.1,11.9,45,0.00,,,0.00,WUHU21623XXSP,2013-08-20 18:41:00,
2013-08-20 11:46:00,80.0,56.8,29.76,SW,225,6.3,11.9,45,0.00,,,0.00,WUHU21623XXSP,2013-08-20 18:46:00,
2013-08-20 11:51:00,80.8,56.2,29.76,WSW,247,10.5,12.1,43,0.00,,,0.00,WUHU21623XXSP,2013-08-20 18:51:00,
2013-08-20 11:56:00,80.9,55.6,29.76,SW,225,6.0,12.1,42,0.00,,,0.00,WUHU21623XXSP,2013-08-20 18:56:00,
2013-08-20 12:01:00,81.1,55.1,29.76,WSW,247,0.0,11.9,41,0.00,,,0.00,WUHU21623XXSP,2013-08-20 19:01:00,
2013-08-20 12:06:00,82.0,55.2,29.76,WSW,247,12.8,15.2,40,0.00,,,0.00,WUHU21623XXSP,2013-08-20 19:06:00,
2013-08-20 12:11:00,82.7,55.9,29.75,SW,225,13.2,15.2,40,0.00,,,0.00,WUHU21623XXSP,2013-08-20 19:11:00,
2013-08-20 12:16:00,82.7,55.9,29.75,SW,225,10.1,13.2,40,0.00,,,0.00,WUHU21623XXSP,2013-08-20 19:16:00,
2013-08-20 12:21:00,83.6,55.2,29.75,West,270,9.2,13.6,38,0.00,,,0.00,WUHU21623XXSP,2013-08-20 19:21:00,
2013-08-20 12:26:00,83.8,54.7,29.75,SSW,202,10.7,13.6,37,0.00,,,0.00,WUHU21623XXSP,2013-08-20 19:26:00,
2013-08-20 12:31:00,84.2,55.0,29.75,SW,225,8.5,12.3,37,0.00,,,0.00,WUHU21623XXSP,2013-08-20 19:31:00,
2013-08-20 12:36:00,84.4,55.9,29.75,SW,225,9.4,12.3,38,0.00,,,0.00,WUHU21623XXSP,2013-08-20 19:36:00,
2013-08-20 12:41:00,84.7,56.2,29.75,West,270,5.6,15.7,38,0.00,,,0.00,WUHU21623XXSP,2013-08-20 19:41:00,
2013-08-20 12:46:00,85.1,55.8,29.74,WSW,247,8.9,15.7,37,0.00,,,0.00,WUHU21623XXSP,2013-08-20 19:46:00,
2013-08-20 12:51:00,85.6,56.3,29.74,SW,225,8.3,13.4,37,0.00,,,0.00,WUHU21623XXSP,2013-08-20 19:51:00,
2013-08-20 12:56:00,85.8,56.4,29.74,SW,225,8.5,13.6,37,0.00,,,0.00,WUHU21623XXSP,2013-08-20 19:56:00,
2013-08-20 13:01:00,86.0,56.6,29.74,WSW,247,4.0,13.6,37,0.00,,,0.00,WUHU21623XXSP,2013-08-20 20:01:00,
2013-08-20 13:06:00,86.3,56.9,29.74,WNW,292,11.4,13.4,37,0.00,,,0.00,WUHU21623XXSP,2013-08-20 20:06:00,
2013-08-20 13:11:00,86.7,56.5,29.74,West,270,7.8,13.2,36,0.00,,,0.00,WUHU21623XXSP,2013-08-20 20:11:00,
2013-08-20 13:16:00,86.9,56.6,29.74,West,270,6.9,13.6,36,0.00,,,0.00,WUHU21623XXSP,2013-08-20 20:16:00,
2013-08-20 13:21:00,87.1,56.8,29.74,West,270,5.6,15.2,36,0.00,,,0.00,WUHU21623XXSP,2013-08-20 20:21:00,
2013-08-20 13:26:00,87.4,57.1,29.74,NW,315,10.5,15.2,36,0.00,,,0.00,WUHU21623XXSP,2013-08-20 20:26:00,
2013-08-20 13:31:00,87.8,57.4,29.74,WSW,247,15.0,15.9,36,0.00,,,0.00,WUHU21623XXSP,2013-08-20 20:31:00,
2013-08-20 13:36:00,88.0,56.8,29.73,West,270,7.6,15.9,35,0.00,,,0.00,WUHU21623XXSP,2013-08-20 20:36:00,
2013-08-20 13:41:00,88.1,56.9,29.73,WSW,247,13.4,19.5,35,0.00,,,0.00,WUHU21623XXSP,2013-08-20 20:41:00,
2013-08-20 13:46:00,88.3,57.1,29.73,WSW,247,11.2,19.5,35,0.00,,,0.00,WUHU21623XXSP,2013-08-20 20:46:00,
2013-08-20 13:52:00,88.3,57.1,29.73,SW,225,8.7,15.2,35,0.00,,,0.00,WUHU21623XXSP,2013-08-20 20:52:00,
2013-08-20 13:57:00,88.3,57.1,29.73,West,270,5.8,15.0,35,0.00,,,0.00,WUHU21623XXSP,2013-08-20 20:57:00,
2013-08-20 14:02:00,88.7,57.4,29.73,SW,225,11.2,19.2,35,0.00,,,0.00,WUHU21623XXSP,2013-08-20 21:02:00,
2013-08-20 14:06:00,88.5,57.3,29.73,WNW,292,4.0,19.2,35,0.00,,,0.00,WUHU21623XXSP,2013-08-20 21:06:00,
2013-08-20 14:12:00,88.7,56.6,29.73,WSW,247,15.9,16.8,34,0.00,,,0.00,WUHU21623XXSP,2013-08-20 21:12:00,
2013-08-20 14:17:00,88.9,56.8,29.72,WSW,247,8.3,16.8,34,0.00,,,0.00,WUHU21623XXSP,2013-08-20 21:17:00,
2013-08-20 14:22:00,89.2,57.1,29.72,NW,315,9.4,18.6,34,0.00,,,0.00,WUHU21623XXSP,2013-08-20 21:22:00,
2013-08-20 14:26:00,89.2,57.1,29.72,WNW,292,4.7,18.6,34,0.00,,,0.00,WUHU21623XXSP,2013-08-20 21:26:00,
2013-08-20 14:31:00,89.2,57.1,29.72,WSW,247,4.9,15.7,34,0.00,,,0.00,WUHU21623XXSP,2013-08-20 21:31:00,
2013-08-20 14:36:00,89.2,57.1,29.72,WNW,292,6.5,11.0,34,0.00,,,0.00,WUHU21623XXSP,2013-08-20 21:36:00,
2013-08-20 14:41:00,89.4,57.2,29.71,WSW,247,13.6,13.6,34,0.00,,,0.00,WUHU21623XXSP,2013-08-20 21:41:00,
2013-08-20 14:46:00,89.6,56.6,29.71,West,270,9.2,17.2,33,0.00,,,0.00,WUHU21623XXSP,2013-08-20 21:46:00,
2013-08-20 14:51:00,89.8,56.8,29.71,West,270,12.1,17.2,33,0.00,,,0.00,WUHU21623XXSP,2013-08-20 21:51:00,
2013-08-20 14:56:00,90.1,57.0,29.71,West,270,10.1,17.4,33,0.00,,,0.00,WUHU21623XXSP,2013-08-20 21:56:00,
2013-08-20 15:01:00,90.3,56.3,29.71,West,270,9.6,18.1,32,0.00,,,0.00,WUHU21623XXSP,2013-08-20 22:01:00,
2013-08-20 15:06:00,90.5,56.5,29.71,WSW,247,12.5,18.1,32,0.00,,,0.00,WUHU21623XXSP,2013-08-20 22:06:00,
2013-08-20 15:11:00,90.7,56.7,29.71,WSW,247,16.1,16.1,32,0.00,,,0.00,WUHU21623XXSP,2013-08-20 22:11:00,
2013-08-20 15:16:00,90.8,56.8,29.71,WSW,247,13.2,16.1,32,0.00,,,0.00,WUHU21623XXSP,2013-08-20 22:16:00,
2013-08-20 15:21:00,90.8,55.9,29.70,SW,225,9.2,16.6,31,0.00,,,0.00,WUHU21623XXSP,2013-08-20 22:21:00,
2013-08-20 15:26:00,91.0,56.9,29.70,WSW,247,11.4,16.6,32,0.00,,,0.00,WUHU21623XXSP,2013-08-20 22:26:00,
2013-08-20 15:31:00,91.0,56.1,29.70,WNW,292,13.0,17.0,31,0.00,,,0.00,WUHU21623XXSP,2013-08-20 22:31:00,
2013-08-20 15:36:00,91.4,56.4,29.70,WSW,247,10.5,17.0,31,0.00,,,0.00,WUHU21623XXSP,2013-08-20 22:36:00,
2013-08-20 15:41:00,91.4,56.4,29.69,WSW,247,16.3,16.6,31,0.00,,,0.00,WUHU21623XXSP,2013-08-20 22:41:00,
2013-08-20 15:46:00,91.6,56.6,29.69,SW,225,10.7,18.8,31,0.00,,,0.00,WUHU21623XXSP,2013-08-20 22:46:00,
2013-08-20 15:51:00,91.7,56.7,29.69,West,270,9.4,18.8,31,0.00,,,0.00,WUHU21623XXSP,2013-08-20 22:51:00,
2013-08-20 15:56:00,92.1,57.0,29.69,West,270,11.2,19.2,31,0.00,,,0.00,WUHU21623XXSP,2013-08-20 22:56:00,
2013-08-20 16:01:00,92.3,57.2,29.69,West,272,11.7,19.2,31,0.00,,,0.00,WUHU21623XXSP,2013-08-20 23:01:00,
2013-08-20 16:06:00,92.3,57.2,29.68,West,270,13.2,19.0,31,0.00,,,0.00,WUHU21623XXSP,2013-08-20 23:06:00,
2013-08-20 16:11:00,92.3,56.3,29.68,WSW,247,10.5,17.9,30,0.00,,,0.00,WUHU21623XXSP,2013-08-20 23:11:00,
2013-08-20 16:16:00,92.3,57.2,29.68,WNW,292,15.9,17.9,31,0.00,,,0.00,WUHU21623XXSP,2013-08-20 23:16:00,
2013-08-20 16:21:00,92.3,56.3,29.68,WSW,247,7.8,17.9,30,0.00,,,0.00,WUHU21623XXSP,2013-08-20 23:21:00,
2013-08-20 16:26:00,92.5,56.5,29.68,WSW,247,11.6,15.2,30,0.00,,,0.00,WUHU21623XXSP,2013-08-20 23:26:00,
2013-08-20 16:31:00,92.3,56.3,29.68,West,270,8.3,15.2,30,0.00,,,0.00,WUHU21623XXSP,2013-08-20 23:31:00,
2013-08-20 16:36:00,92.3,56.3,29.68,WSW,247,12.5,15.7,30,0.00,,,0.00,WUHU21623XXSP,2013-08-20 23:36:00,
2013-08-20 16:41:00,92.3,56.3,29.68,West,270,10.7,19.0,30,0.00,,,0.00,WUHU21623XXSP,2013-08-20 23:41:00,
2013-08-20 16:46:00,92.1,57.0,29.68,WSW,247,11.9,19.0,31,0.00,,,0.00,WUHU21623XXSP,2013-08-20 23:46:00,
2013-08-20 16:51:00,92.1,57.0,29.68,WSW,247,10.5,16.3,31,0.00,,,0.00,WUHU21623XXSP,2013-08-20 23:51:00,
2013-08-20 16:56:00,91.9,56.8,29.68,West,262,11.7,16.6,31,0.00,,,0.00,WUHU21623XXSP,2013-08-20 23:56:00,
2013-08-20 17:01:00,91.9,56.8,29.68,West,270,13.6,16.6,31,0.00,,,0.00,WUHU21623XXSP,2013-08-21 00:01:00,
2013-08-20 17:06:00,91.9,56.8,29.68,WSW,247,11.2,16.6,31,0.00,,,0.00,WUHU21623XXSP,2013-08-21 00:06:00,
2013-08-20 17:11:00,91.6,56.6,29.68,WSW,247,16.3,18.1,31,0.00,,,0.00,WUHU21623XXSP,2013-08-21 00:11:00,
2013-08-20 17:16:00,91.0,55.2,29.68,WSW,247,16.3,19.7,30,0.00,,,0.00,WUHU21623XXSP,2013-08-21 00:16:00,
2013-08-20 17:22:00,91.0,56.1,29.68,WSW,247,12.3,19.9,31,0.00,,,0.00,WUHU21623XXSP,2013-08-21 00:22:00,
2013-08-20 17:27:00,91.0,56.1,29.68,West,270,10.7,19.9,31,0.00,,,0.00,WUHU21623XXSP,2013-08-21 00:27:00,
2013-08-20 17:32:00,90.5,55.6,29.68,West,270,8.9,17.7,31,0.00,,,0.00,WUHU21623XXSP,2013-08-21 00:32:00,
2013-08-20 17:37:00,90.1,55.3,29.68,West,270,11.0,17.7,31,0.00,,,0.00,WUHU21623XXSP,2013-08-21 00:37:00,
2013-08-20 17:42:00,90.1,55.3,29.68,WSW,247,15.7,16.1,31,0.00,,,0.00,WUHU21623XXSP,2013-08-21 00:42:00,
2013-08-20 17:47:00,90.1,55.3,29.68,West,270,11.4,16.3,31,0.00,,,0.00,WUHU21623XXSP,2013-08-21 00:47:00,
2013-08-20 17:52:00,89.8,55.0,29.68,WSW,247,11.6,17.0,31,0.00,,,0.00,WUHU21623XXSP,2013-08-21 00:52:00,
2013-08-20 17:57:00,89.6,54.9,29.68,WSW,247,12.1,17.0,31,0.00,,,0.00,WUHU21623XXSP,2013-08-21 00:57:00,
2013-08-20 18:02:00,89.2,55.4,29.69,WSW,247,16.3,17.9,32,0.00,,,0.00,WUHU21623XXSP,2013-08-21 01:02:00,
2013-08-20 18:07:00,88.9,55.1,29.69,West,270,15.2,18.6,32,0.00,,,0.00,WUHU21623XXSP,2013-08-21 01:07:00,
2013-08-20 18:12:00,88.3,55.4,29.69,West,270,8.7,19.0,33,0.00,,,0.00,WUHU21623XXSP,2013-08-21 01:12:00,
2013-08-20 18:17:00,87.8,55.0,29.69,West,270,13.6,19.0,33,0.00,,,0.00,WUHU21623XXSP,2013-08-21 01:17:00,
2013-08-20 18:19:00,87.6,54.8,29.69,West,270,12.3,19.0,33,0.00,,,0.00,WUHU21623XXSP,2013-08-21 01:19:00,
2013-08-20 18:24:00,87.1,54.4,29.69,WSW,253,13.8,19.0,33,0.00,,,0.00,WUHU21623XXSP,2013-08-21 01:24:00,
2013-08-20 18:29:00,86.9,55.0,29.69,WSW,247,13.4,16.1,34,0.00,,,0.00,WUHU21623XXSP,2013-08-21 01:29:00,
2013-08-20 18:34:00,86.5,54.7,29.70,West,270,15.2,17.9,34,0.00,,,0.00,WUHU21623XXSP,2013-08-21 01:34:00,
2013-08-20 18:39:00,86.7,54.9,29.70,West,270,9.6,17.9,34,0.00,,,0.00,WUHU21623XXSP,2013-08-21 01:39:00,
2013-08-20 18:44:00,86.7,54.9,29.70,WSW,247,14.8,16.3,34,0.00,,,0.00,WUHU21623XXSP,2013-08-21 01:44:00,
2013-08-20 18:49:00,86.7,54.9,29.70,West,270,16.3,17.4,34,0.00,,,0.00,WUHU21623XXSP,2013-08-21 01:49:00,
2013-08-20 18:54:00,86.0,54.2,29.71,West,270,12.8,17.4,34,0.00,,,0.00,WUHU21623XXSP,2013-08-21 01:54:00,
2013-08-20 18:59:00,85.4,53.7,29.71,West,270,10.1,15.9,34,0.00,,,0.00,WUHU21623XXSP,2013-08-21 01:59:00,
2013-08-20 19:04:00,84.9,54.1,29.71,West,270,9.2,15.4,35,0.00,,,0.00,WUHU21623XXSP,2013-08-21 02:04:00,
2013-08-20 19:09:00,84.2,53.5,29.71,West,270,10.1,15.2,35,0.00,,,0.00,WUHU21623XXSP,2013-08-21 02:09:00,
2013-08-20 19:14:00,83.8,53.9,29.72,West,270,13.0,16.3,36,0.00,,,0.00,WUHU21623XXSP,2013-08-21 02:14:00,
2013-08-20 19:19:00,83.5,53.6,29.72,West,270,9.6,16.3,36,0.00,,,0.00,WUHU21623XXSP,2013-08-21 02:19:00,
2013-08-20 19:24:00,83.3,53.4,29.72,West,270,9.8,13.2,36,0.00,,,0.00,WUHU21623XXSP,2013-08-21 02:24:00,
2013-08-20 19:29:00,83.1,53.3,29.72,WSW,247,7.8,13.2,36,0.00,,,0.00,WUHU21623XXSP,2013-08-21 02:29:00,
2013-08-20 19:34:00,82.9,52.3,29.72,West,270,6.9,13.0,35,0.00,,,0.00,WUHU21623XXSP,2013-08-21 02:34:00,
2013-08-20 19:39:00,82.4,52.6,29.72,West,270,4.0,13.0,36,0.00,,,0.00,WUHU21623XXSP,2013-08-21 02:39:00,
2013-08-20 19:44:00,81.8,52.1,29.72,West,270,7.2,12.1,36,0.00,,,0.00,WUHU21623XXSP,2013-08-21 02:44:00,
2013-08-20 19:49:00,81.1,51.5,29.72,West,270,5.6,12.1,36,0.00,,,0.00,WUHU21623XXSP,2013-08-21 02:49:00,
2013-08-20 19:54:00,80.6,51.1,29.73,WSW,247,5.1,10.7,36,0.00,,,0.00,WUHU21623XXSP,2013-08-21 02:54:00,
2013-08-20 19:59:00,79.7,51.0,29.73,WSW,247,5.6,7.4,37,0.00,,,0.00,WUHU21623XXSP,2013-08-21 02:59:00,
2013-08-20 20:04:00,79.3,50.6,29.73,West,270,5.1,9.8,37,0.00,,,0.00,WUHU21623XXSP,2013-08-21 03:04:00,
2013-08-20 20:09:00,79.1,50.5,29.73,WNW,292,5.8,11.2,37,0.00,,,0.00,WUHU21623XXSP,2013-08-21 03:09:00,
2013-08-20 20:14:00,79.1,50.5,29.73,WNW,292,9.4,13.6,37,0.00,,,0.00,WUHU21623XXSP,2013-08-21 03:14:00,
2013-08-20 20:19:00,79.1,50.5,29.72,WNW,292,8.9,13.6,37,0.00,,,0.00,WUHU21623XXSP,2013-08-21 03:19:00,
2013-08-20 20:24:00,78.6,50.0,29.73,WNW,292,10.5,12.3,37,0.00,,,0.00,WUHU21623XXSP,2013-08-21 03:24:00,
2013-08-20 20:29:00,78.2,50.4,29.73,WNW,286,9.3,13.0,38,0.00,,,0.00,WUHU21623XXSP,2013-08-21 03:29:00,
2013-08-20 20:34:00,77.9,50.1,29.73,WNW,292,10.5,13.4,38,0.00,,,0.00,WUHU21623XXSP,2013-08-21 03:34:00,
2013-08-20 20:39:00,77.5,50.5,29.73,WNW,292,11.0,13.6,39,0.00,,,0.00,WUHU21623XXSP,2013-08-21 03:39:00,
2013-08-20 20:44:00,77.2,50.2,29.73,WNW,292,10.3,13.6,39,0.00,,,0.00,WUHU21623XXSP,2013-08-21 03:44:00,
2013-08-20 20:49:00,77.2,49.5,29.74,WNW,292,9.6,15.0,38,0.00,,,0.00,WUHU21623XXSP,2013-08-21 03:49:00,
2013-08-20 20:54:00,77.0,49.3,29.73,West,270,9.6,15.0,38,0.00,,,0.00,WUHU21623XXSP,2013-08-21 03:54:00,
2013-08-20 20:59:00,77.0,49.3,29.74,WNW,292,9.4,12.8,38,0.00,,,0.00,WUHU21623XXSP,2013-08-21 03:59:00,
2013-08-20 21:01:00,77.0,49.3,29.74,West,270,11.0,13.2,38,0.00,,,0.00,WUHU21623XXSP,2013-08-21 04:01:00,
2013-08-20 21:06:00,76.4,48.8,29.74,WNW,292,12.3,14.8,38,0.00,,,0.00,WUHU21623XXSP,2013-08-21 04:06:00,
2013-08-20 21:11:00,75.7,48.2,29.74,WNW,292,11.9,14.8,38,0.00,,,0.00,WUHU21623XXSP,2013-08-21 04:11:00,
2013-08-20 21:16:00,75.2,48.4,29.74,WNW,292,9.4,13.0,39,0.00,,,0.00,WUHU21623XXSP,2013-08-21 04:16:00,
2013-08-20 21:21:00,74.6,47.9,29.74,WNW,292,10.3,13.0,39,0.00,,,0.00,WUHU21623XXSP,2013-08-21 04:21:00,
2013-08-20 21:26:00,74.3,47.6,29.74,WNW,292,9.8,13.4,39,0.00,,,0.00,WUHU21623XXSP,2013-08-21 04:26:00,
2013-08-20 21:31:00,73.7,47.8,29.74,WNW,292,12.3,15.9,40,0.00,,,0.00,WUHU21623XXSP,2013-08-21 04:31:00,
2013-08-20 21:36:00,73.7,47.8,29.75,WNW,294,11.6,17.0,40,0.00,,,0.00,WUHU21623XXSP,2013-08-21 04:36:00,
2013-08-20 21:41:00,73.6,47.7,29.75,WNW,292,10.7,17.0,40,0.00,,,0.00,WUHU21623XXSP,2013-08-21 04:41:00,
2013-08-20 21:46:00,73.4,47.5,29.75,WNW,292,11.2,13.2,40,0.00,,,0.00,WUHU21623XXSP,2013-08-21 04:46:00,
2013-08-20 21:51:00,73.0,47.1,29.74,West,270,8.7,13.0,40,0.00,,,0.00,WUHU21623XXSP,2013-08-21 04:51:00,
2013-08-20 21:56:00,72.5,46.7,29.75,WNW,292,7.8,10.5,40,0.00,,,0.00,WUHU21623XXSP,2013-08-21 04:56:00,
2013-08-20 22:01:00,72.1,46.3,29.75,WNW,292,6.7,11.9,40,0.00,,,0.00,WUHU21623XXSP,2013-08-21 05:01:00,
2013-08-20 22:06:00,71.9,46.8,29.75,WNW,292,8.9,11.9,41,0.00,,,0.00,WUHU21623XXSP,2013-08-21 05:06:00,
2013-08-20 22:11:00,71.6,46.6,29.75,WNW,292,9.8,11.6,41,0.00,,,0.00,WUHU21623XXSP,2013-08-21 05:11:00,
2013-08-20 22:16:00,71.2,46.2,29.75,West,270,8.7,11.6,41,0.00,,,0.00,WUHU21623XXSP,2013-08-21 05:16:00,
2013-08-20 22:21:00,71.6,46.6,29.75,WNW,292,9.4,11.9,41,0.00,,,0.00,WUHU21623XXSP,2013-08-21 05:21:00,
2013-08-20 22:26:00,71.8,46.7,29.75,WNW,292,9.8,12.5,41,0.00,,,0.00,WUHU21623XXSP,2013-08-21 05:26:00,
2013-08-20 22:31:00,71.8,46.7,29.75,WNW,292,10.7,12.5,41,0.00,,,0.00,WUHU21623XXSP,2013-08-21 05:31:00,
2013-08-20 22:36:00,71.6,46.6,29.75,WNW,292,8.3,11.2,41,0.00,,,0.00,WUHU21623XXSP,2013-08-21 05:36:00,
2013-08-20 22:41:00,71.2,46.2,29.75,WSW,247,7.6,11.2,41,0.00,,,0.00,WUHU21623XXSP,2013-08-21 05:41:00,
2013-08-20 22:46:00,71.0,46.0,29.75,SW,225,5.8,8.3,41,0.00,,,0.00,WUHU21623XXSP,2013-08-21 05:46:00,
2013-08-20 22:51:00,70.3,45.4,29.75,SW,225,3.4,8.1,41,0.00,,,0.00,WUHU21623XXSP,2013-08-21 05:51:00,
2013-08-20 22:56:00,69.8,45.6,29.75,WSW,247,3.6,7.6,42,0.00,,,0.00,WUHU21623XXSP,2013-08-21 05:56:00,
2013-08-20 23:01:00,69.2,45.0,29.75,WSW,247,6.0,7.6,42,0.00,,,0.00,WUHU21623XXSP,2013-08-21 06:01:00,
2013-08-20 23:06:00,69.1,44.9,29.75,WSW,247,5.8,7.4,42,0.00,,,0.00,WUHU21623XXSP,2013-08-21 06:06:00,
2013-08-20 23:11:00,68.9,45.4,29.75,WSW,247,0.0,7.2,43,0.00,,,0.00,WUHU21623XXSP,2013-08-21 06:11:00,
2013-08-20 23:16:00,68.9,44.8,29.75,WSW,247,1.6,6.9,42,0.00,,,0.00,WUHU21623XXSP,2013-08-21 06:16:00,
2013-08-20 23:21:00,68.3,44.9,29.75,West,270,5.1,6.5,43,0.00,,,0.00,WUHU21623XXSP,2013-08-21 06:21:00,
2013-08-20 23:26:00,68.0,44.6,29.75,WSW,247,1.3,7.2,43,0.00,,,0.00,WUHU21623XXSP,2013-08-21 06:26:00,
2013-08-20 23:31:00,67.4,44.7,29.75,WSW,247,4.9,7.2,44,0.00,,,0.00,WUHU21623XXSP,2013-08-21 06:31:00,
2013-08-20 23:36:00,66.9,44.2,29.75,WSW,247,6.0,8.1,44,0.00,,,0.00,WUHU21623XXSP,2013-08-21 06:36:00,
2013-08-20 23:41:00,66.7,44.6,29.74,WSW,247,8.1,8.3,45,0.00,,,0.00,WUHU21623XXSP,2013-08-21 06:41:00,
2013-08-20 23:46:00,66.4,44.4,29.75,WSW,247,3.8,8.3,45,0.00,,,0.00,WUHU21623XXSP,2013-08-21 06:46:00,
2013-08-20 23:51:00,66.0,44.0,29.75,SW,225,1.6,6.0,45,0.00,,,0.00,WUHU21623XXSP,2013-08-21 06:51:00,
2013-08-20 23:56:00,66.2,44.2,29.75,SW,225,0.0,4.9,45,0.00,,,0.00,WUHU21623XXSP,2013-08-21 06:56:00,